Preview of NWS' New Version of Forecast
This preview is not operational and should not be used for support decisions.

Regional Weather Roundup (RWR)

Issued by National Weather Service (NWS)

                            
000
ASUS45 KCYS 241210
RWRWY 

WYOMING REGIONAL WEATHER ROUNDUP
NATIONAL WEATHER SERVICE CHEYENNE WY
600 AM MDT MON JUN 24 2019

NOTE:  "FAIR" INDICATES FEW OR NO CLOUDS BELOW 12,000 FEET
WITH NO SIGNIFICANT WEATHER AND/OR OBSTRUCTIONS TO VISIBILITY.

WYZ001-241300-
...YELLOWSTONE NATIONAL PARK...
  
CITY           SKY/WX    TMP DP  RH WIND       PRES   REMARKS
LK YELLOWSTONE   N/A     35  30  82 W3        30.05S                  
6HR MIN TEMP:  34; 6HR MAX TEMP:  45;                                

W YELLOWSTONE  NOT AVBL                                               

$$
WYZ002>013-054>058-071-098>099-241300-
...NORTHERN WYOMING...
  
CITY           SKY/WX    TMP DP  RH WIND       PRES   REMARKS
JACKSON        CLOUDY    45  30  55 CALM      30.02S                  
CODY           CLOUDY    50  42  74 NE5       29.94R                  
GREYBULL       MOCLDY    58  43  57 W8        29.84S                  
6HR MIN TEMP:  56; 6HR MAX TEMP:  64; 6HR PCP: TRACE;                

WORLAND        CLEAR     45  41  86 CALM      29.85R                  
6HR MIN TEMP:  44; 6HR MAX TEMP:  61;                                

SHERIDAN       MOCLDY    54  46  74 NW10      29.87S                  
6HR MIN TEMP:  53; 6HR MAX TEMP:  58; 6HR PCP: TRACE;                

BUFFALO        PTCLDY    50  42  74 NW7       29.90                   
6HR MIN TEMP:  50; 6HR MAX TEMP:  57; 6HR PCP: TRACE;                

GILLETTE       MOCLDY    53  48  83 NW3G18    29.86S                  
6HR MIN TEMP:  50; 6HR MAX TEMP:  55;                                

HULETT         MOCLDY    52  45  76 SW9       29.86F                  
NEWCASTLE      FAIR      46  45  93 CALM      29.88F                  

$$
WYZ014>020-022>026-101>103-241300-
...CENTRAL WYOMING...
  
CITY           SKY/WX    TMP DP  RH WIND       PRES   REMARKS
BIG PINEY      PTCLDY    42  32  67 S6        30.07R                  
6HR MIN TEMP:  37; 6HR MAX TEMP:  48;                                

PINEDALE       PTCLDY    32  30  93 CALM      30.08S                  
DUBOIS         FAIR      41  30  65 NW9       30.00S                  
LANDER         MOCLDY    50  35  56 S5        29.91S                  
6HR MIN TEMP:  48; 6HR MAX TEMP:  61;                                

RIVERTON       MOCLDY    50  36  58 W8        29.92S                  
6HR MIN TEMP:  48; 6HR MAX TEMP:  59;                                

CASPER         CLEAR     50  41  71 SW7       29.91F                  
6HR MIN TEMP:  46; 6HR MAX TEMP:  56;                                

DOUGLAS        MOCLDY    49  47  93 CALM      29.91S                  
6HR MIN TEMP:  49; 6HR MAX TEMP:  52; 6HR PCP: TRACE;                


$$
WYZ021-027>030-104>119-241300-
...SOUTHERN WYOMING...
  
CITY           SKY/WX    TMP DP  RH WIND       PRES   REMARKS
EVANSTON       CLEAR     45  29  53 W10       30.12R                  
6HR MIN TEMP:  42; 6HR MAX TEMP:  50;                                

KEMMERER       CLEAR     41  30  65 CALM      30.10S                  
FORT BRIDGER   CLEAR     46  30  53 W13       30.12                   
ROCK SPRINGS   CLEAR     48  29  47 SW13      30.07R                  
6HR MIN TEMP:  48; 6HR MAX TEMP:  53;                                

DIXON          CLOUDY    46  38  75 E13G22    30.11S                  
RAWLINS        PTCLDY    52  34  50 SW16      30.03S                  
6HR MIN TEMP:  50; 6HR MAX TEMP:  56;                                

SARATOGA       FAIR      46  34  61 SW8       30.06R                  
LARAMIE        CLOUDY    44  34  67 SW8       30.05S                  
6HR MIN TEMP:  40; 6HR MAX TEMP:  47;                                

CHEYENNE       PTCLDY    52  37  56 W10       30.01                   
TORRINGTON     MOCLDY    45  44  97 W3        29.89S                  
6HR MIN TEMP:  44; 6HR MAX TEMP:  48;                                

PINE BLUFFS    MOCLDY    46  45  93 SW5       29.97S                  

$$